EW3230 Weather Reports


Display with metric or nautical units.
time (UTC)temp
F
wind
direction
speed
MPH
gust
MPH
rain 1hr
in
rain 24hr
in
rain mn
in
humidity
%
barometer
mb
20210617230811 71 219 1.0 2.0 0.00 0.00 0.00 54 1013.6
20210617225811 71 208 1.0 2.0 0.00 0.00 0.00 52 1013.5
20210617224813 72 229 1.0 3.0 0.00 0.00 0.00 51 1013.5
20210617223810 72 221 1.0 3.0 0.00 0.00 0.00 50 1013.3
20210617222813 72 291 1.0 5.0 0.00 0.00 0.00 49 1013.3
20210617221811 72 217 1.0 2.0 0.00 0.00 0.00 48 1013.2
20210617220811 73 222 1.0 3.0 0.00 0.00 0.00 47 1013.1
20210617215811 73 221 1.0 3.0 0.00 0.00 0.00 45 1013.1
20210617214811 73 203 1.0 4.0 0.00 0.00 0.00 45 1013.0
20210617213812 74 191 1.0 4.0 0.00 0.00 0.00 43 1012.9
20210617212811 74 204 2.0 4.0 0.00 0.00 0.00 43 1012.8
20210617211811 74 250 1.0 2.0 0.00 0.00 0.00 45 1012.9
20210617210811 75 215 1.0 3.0 0.00 0.00 0.00 43 1012.9
20210617205813 76 215 2.0 4.0 0.00 0.00 0.00 42 1012.8
20210617204811 75 208 1.0 3.0 0.00 0.00 0.00 45 1012.9
20210617203812 75 210 2.0 4.0 0.00 0.00 0.00 45 1012.9
20210617202811 76 212 2.0 3.0 0.00 0.00 0.00 44 1012.9
20210617201811 76 191 2.0 4.0 0.00 0.00 0.00 42 1012.8
20210617200811 75 212 1.0 3.0 0.00 0.00 0.00 44 1012.9
20210617195813 75 194 1.0 4.0 0.00 0.00 0.00 47 1013.0
20210617194811 74 173 1.0 3.0 0.00 0.00 0.00 46 1013.2
20210617193811 74 169 1.0 3.0 0.00 0.00 0.00 46 1013.2
20210617192811 75 210 1.0 3.0 0.00 0.00 0.00 42 1013.3
20210617191811 76 228 1.0 4.0 0.00 0.00 0.00 42 1013.2
20210617190812 76 156 1.0 4.0 0.00 0.00 0.00 44 1013.2
20210617185809 76 208 2.0 5.0 0.00 0.00 0.00 46 1013.2
20210617184809 77 141 1.0 4.0 0.00 0.00 0.00 44 1013.1
20210617183808 77 198 1.0 4.0 0.00 0.00 0.00 40 1013.2
20210617182811 77 228 2.0 7.0 0.00 0.00 0.00 44 1013.3
20210617181809 78 94 1.0 3.0 0.00 0.00 0.00 43 1013.1
20210617180809 77 259 1.0 4.0 0.00 0.00 0.00 33 1013.4
20210617175809 78 242 0.0 4.0 0.00 0.00 0.00 30 1013.4
20210617174809 78 236 1.0 4.0 0.00 0.00 0.00 34 1013.3
20210617173804 78 359 1.0 6.0 0.00 0.00 0.00 33 1013.4
20210617172803 78 338 0.0 3.0 0.00 0.00 0.00 30 1013.4
20210617171802 77 160 1.0 6.0 0.00 0.00 0.00 34 1013.4
20210617170802 76 265 2.0 8.0 0.00 0.00 0.00 34 1013.4
20210617165804 77 259 1.0 6.0 0.00 0.00 0.00 34 1013.5
20210617164803 76 104 1.0 8.0 0.00 0.00 0.00 32 1013.6
20210617163803 77 145 1.0 4.0 0.00 0.00 0.00 35 1013.5
20210617162804 76 243 2.0 6.0 0.00 0.00 0.00 34 1013.7
20210617161801 76 349 1.0 5.0 0.00 0.00 0.00 32 1013.8
20210617160800 76 236 1.0 6.0 0.00 0.00 0.00 36 1013.9
20210617155759 77 290 1.0 3.0 0.00 0.00 0.00 34 1013.9
20210617154759 77 194 1.0 5.0 0.00 0.00 0.00 37 1013.9
20210617153757 76 288 1.0 5.0 0.00 0.00 0.00 37 1014.0
20210617152757 75 276 1.0 8.0 0.00 0.00 0.00 36 1014.1
20210617151757 75 197 1.0 7.0 0.00 0.00 0.00 38 1014.1
20210617150757 75 332 1.0 7.0 0.00 0.00 0.00 38 1014.0
20210617145757 75 334 1.0 5.0 0.00 0.00 0.00 39 1014.0
20210617144757 74 194 1.0 8.0 0.00 0.00 0.00 42 1014.0
20210617143757 74 223 1.0 3.0 0.00 0.00 0.00 41 1013.9
20210617142755 74 272 1.0 5.0 0.00 0.00 0.00 39 1013.9
20210617141755 75 224 0.0 3.0 0.00 0.00 0.00 43 1014.0
20210617140755 73 240 0.0 2.0 0.00 0.00 0.00 40 1014.0
20210617135755 73 229 1.0 3.0 0.00 0.00 0.00 40 1014.0
20210617134755 73 291 1.0 4.0 0.00 0.00 0.00 44 1013.9
20210617133801 73 194 0.0 1.0 0.00 0.00 0.00 51 1014.0
20210617132750 72 225 0.0 1.0 0.00 0.00 0.00 53 1014.1
20210617131755 70 266 0.0 3.0 0.00 0.00 0.00 56 1014.2
20210617130752 70 232 0.0 3.0 0.00 0.00 0.00 52 1014.3
20210617125747 71 12 0.0 2.0 0.00 0.00 0.00 51 1014.3
20210617124747 71 252 0.0 1.0 0.00 0.00 0.00 55 1014.3
20210617123747 71 278 0.0 3.0 0.00 0.00 0.00 53 1014.2
20210617122748 70 174 0.0 0.0 0.00 0.00 0.00 56 1014.1
20210617121751 69 20 0.0 1.0 0.00 0.00 0.00 57 1014.1
20210617120746 67 302 0.0 2.0 0.00 0.00 0.00 59 1014.0
20210617115744 66 284 0.0 3.0 0.00 0.00 0.00 61 1013.9
20210617114741 65 217 0.0 2.0 0.00 0.00 0.00 63 1013.9
20210617113742 65 218 0.0 1.0 0.00 0.00 0.00 65 1013.9
20210617112741 64 266 0.0 2.0 0.00 0.00 0.00 67 1013.7
20210617111741 64 269 0.0 1.0 0.00 0.00 0.00 66 1013.6
20210617110743 64 298 0.0 0.0 0.00 0.00 0.00 69 1013.5
20210617105737 62 297 0.0 0.0 0.00 0.00 0.00 74 1013.6
20210617104737 61 298 0.0 0.0 0.00 0.00 0.00 79 1013.6
20210617103737 58 298 0.0 0.0 0.00 0.00 0.00 88 1013.4
20210617102735 55 300 0.0 0.0 0.00 0.00 0.00 93 1013.3
20210617101735 52 298 0.0 0.0 0.00 0.00 0.00 94 1013.3
20210617100736 51 298 0.0 0.0 0.00 0.00 0.00 93 1013.3
20210617095736 51 298 0.0 0.0 0.00 0.00 0.00 93 1013.1
20210617094735 50 298 0.0 0.0 0.00 0.00 0.00 93 1013.1
20210617093735 50 298 0.0 0.0 0.00 0.00 0.00 92 1013.0
20210617092736 51 297 0.0 0.0 0.00 0.00 0.00 92 1012.9
20210617091735 51 300 0.0 0.0 0.00 0.00 0.00 92 1012.9
20210617090733 51 298 0.0 0.0 0.00 0.00 0.00 92 1012.9
20210617085733 51 298 0.0 0.0 0.00 0.00 0.00 92 1012.9
20210617084733 51 297 0.0 0.0 0.00 0.00 0.00 91 1012.9
20210617083733 51 298 0.0 0.0 0.00 0.00 0.00 91 1012.9
20210617082734 51 298 0.0 0.0 0.00 0.00 0.00 90 1012.9
20210617081733 51 298 0.0 0.0 0.00 0.00 0.00 89 1012.9
20210617080734 52 297 0.0 0.0 0.00 0.00 0.00 89 1012.7
20210617075732 52 299 0.0 0.0 0.00 0.00 0.00 89 1012.7
20210617074731 52 298 0.0 0.0 0.00 0.00 0.00 88 1012.9
20210617073730 53 298 0.0 0.0 0.00 0.00 0.00 87 1012.8
20210617072731 53 297 0.0 0.0 0.00 0.00 0.00 87 1012.8
20210617071729 53 298 0.0 0.0 0.00 0.00 0.00 87 1012.7
20210617070727 54 297 0.0 0.0 0.00 0.00 0.00 86 1012.7
20210617065728 54 297 0.0 0.0 0.00 0.00 0.00 86 1012.7
20210617064727 54 298 0.0 0.0 0.00 0.00 0.00 86 1012.7
20210617063727 55 298 0.0 0.0 0.00 0.00 0.00 85 1012.6
20210617062727 55 298 0.0 0.0 0.00 0.00 0.00 84 1012.7
20210617061723 55 297 0.0 0.0 0.00 0.00 0.00 84 1012.7
20210617060723 55 297 0.0 0.0 0.00 0.00 0.00 84 1012.7
20210617055725 55 297 0.0 0.0 0.00 0.00 0.00 85 1012.7
20210617054722 56 298 0.0 0.0 0.00 0.00 0.00 85 1012.7
20210617053723 56 297 0.0 0.0 0.00 0.00 0.00 86 1012.7
20210617052721 56 298 0.0 1.0 0.00 0.00 0.00 87 1012.7
20210617051721 56 297 0.0 0.0 0.00 0.00 0.00 88 1012.6
20210617050720 56 298 0.0 0.0 0.00 0.00 0.00 89 1012.7
20210617045717 57 298 0.0 0.0 0.00 0.00 0.00 89 1012.7
20210617044717 57 297 0.0 0.0 0.00 0.00 0.00 91 1012.7
20210617043716 57 298 0.0 0.0 0.00 0.00 0.00 92 1012.7
20210617042715 57 297 0.0 0.0 0.00 0.00 0.00 92 1012.6
20210617041716 57 298 0.0 0.0 0.00 0.00 0.00 91 1012.6
20210617040716 58 300 0.0 0.0 0.00 0.00 0.00 90 1012.5
20210617035715 58 298 0.0 0.0 0.00 0.00 0.00 90 1012.5
20210617034715 58 298 0.0 0.0 0.00 0.00 0.00 89 1012.5
20210617033713 58 298 0.0 0.0 0.00 0.00 0.00 88 1012.5
20210617032713 58 298 0.0 0.0 0.00 0.00 0.00 87 1012.6
20210617031713 58 298 0.0 0.0 0.00 0.00 0.00 87 1012.7
20210617030714 58 297 0.0 0.0 0.00 0.00 0.00 85 1012.6
20210617025713 58 300 0.0 0.0 0.00 0.00 0.00 84 1012.5
20210617024713 58 300 0.0 0.0 0.00 0.00 0.00 82 1012.5
20210617023713 59 297 0.0 0.0 0.00 0.00 0.00 81 1012.5
20210617021712 60 298 0.0 0.0 0.00 0.00 0.00 80 1012.4
20210617020712 60 298 0.0 1.0 0.00 0.00 0.00 79 1012.2
20210617015711 60 298 0.0 0.0 0.00 0.00 0.00 78 1012.2
20210617014711 61 300 0.0 0.0 0.00 0.00 0.00 76 1012.0
20210617013712 61 298 0.0 0.0 0.00 0.00 0.00 75 1011.8
20210617012711 62 298 0.0 0.0 0.00 0.00 0.00 74 1011.6
20210617011711 62 298 0.0 0.0 0.00 0.00 0.00 73 1011.5
20210617010710 63 297 0.0 0.0 0.00 0.00 0.00 72 1011.4
20210617005712 64 297 0.0 0.0 0.00 0.00 0.00 70 1011.3
20210617004711 64 298 0.0 0.0 0.00 0.00 0.00 70 1011.1
20210617003711 64 298 0.0 0.0 0.00 0.00 0.00 66 1011.0
20210617002713 65 298 0.0 0.0 0.00 0.00 0.00 65 1010.9
20210617001712 66 298 0.0 1.0 0.00 0.00 0.00 62 1010.8
20210617000709 67 297 0.0 0.0 0.00 0.00 0.00 63 1010.7
20210616235708 67 325 0.0 0.0 0.00 0.00 0.00 59 1010.6
20210616234706 68 332 0.0 1.0 0.00 0.00 0.00 57 1010.5
20210616233705 68 333 0.0 1.0 0.00 0.00 0.00 59 1010.4
20210616232703 68 42 0.0 0.0 0.00 0.00 0.00 59 1010.2
20210616231703 68 43 0.0 1.0 0.00 0.00 0.00 57 1010.1